Location: *
(48.0930°S, 178.5602°E)
Time: 21:20:08
(UTC+00:00)

Daily predictions for brighter satellites

Satellite Brightness Start Highest point End
(mag) Time Altitude Azimuth Time Altitude Azimuth Time Altitude Azimuth
Cosmos 1980 Rocket 4.3 15:35:06 23° ESE 15:35:06 23° ESE 15:38:00 10° SE
SeaSat 1 3.9 16:10:19 10° ENE 16:14:02 34° ESE 16:14:02 34° ESE
USA 234 3.2 16:20:01 10° SE 16:26:20 82° SE 16:26:20 82° SE
Cosmos 1697 Rocket 4.2 16:30:03 28° SSE 16:30:03 28° SSE 16:32:40 10° SSE
Cosmos 1844 Rocket 4.5 16:38:48 19° S 16:41:27 26° SE 16:46:07 10° ENE
Blok-L 4.4 16:42:20 54° E 16:42:20 54° E 16:48:33 10° NE
Cosmos 1417 Rocket 4.4 16:41:05 70° S 16:41:56 89° E 16:48:21 10° N
Cosmos 839 Rocket 4.5 16:42:54 62° SW 16:42:54 62° SW 16:49:35 10° SSE
Cosmos 2369 3.6 16:58:24 77° SW 16:58:24 77° SW 17:03:58 10° SSE
BREEZE-M DEB (TANK) 3.8 17:00:03 30° E 17:00:03 30° E 17:01:18 10° ESE
DNEPR-1 R/B 4.3 17:02:36 44° SE 17:02:36 44° SE 17:06:35 10° ENE
Cosmos 2263 Rocket 2.2 17:04:38 59° NNW 17:04:38 59° NNW 17:09:29 10° NNE
Cosmos 2278 4.1 17:02:17 10° NNW 17:07:54 64° ENE 17:13:37 10° SSE
Genesis I 4.4 17:11:30 35° NNE 17:11:30 35° NNE 17:13:50 10° NNE
ARGOS 3.0 17:05:50 10° N 17:11:18 79° WNW 17:13:07 44° SSW
Cosmos 883 Rocket 4.4 17:07:09 10° S 17:13:24 90° W 17:19:34 10° N
Cosmos 1980 Rocket 2.2 17:16:56 56° SW 17:16:56 56° SW 17:22:34 10° SSE
AQUARIUS 4.3 17:23:50 10° NNE 17:28:20 75° ESE 17:31:36 19° S
Cosmos 2315 Rocket 3.9 17:23:59 10° SSW 17:30:16 77° W 17:36:30 10° N
Cosmos 967 Rocket 4.4 17:26:53 29° NW 17:30:19 71° SW 17:36:49 10° SE
CZ-2C R/B 4.2 17:26:57 10° S 17:28:52 20° SSW 17:28:52 20° SSW
ISS -3.6 17:34:51 69° SE 17:34:51 69° SE 17:38:07 10° ENE
BREEZE-M DEB (TANK) 2.5 17:35:26 41° ENE 17:35:26 41° ENE 17:37:49 10° ESE
SL-16 R/B 4.4 17:33:18 10° SSW 17:34:33 14° SSW 17:34:33 14° SSW
CZ-4B R/B 3.5 17:32:27 10° N 17:37:32 57° WNW 17:39:40 33° SW
Radarsat 4.5 17:32:40 10° NNE 17:37:55 85° WNW 17:43:10 10° SSW
Cosmos 2151 4.4 17:40:31 24° NW 17:40:31 24° NW 17:42:30 10° NNW
Timation 2 Rocket 3.8 17:35:22 27° SW 17:38:51 78° WNW 17:45:07 10° NNE
SL-08 RB Rocket 3.7 17:37:01 10° N 17:41:26 54° W 17:42:34 42° SW
Cosmos 1242 Rocket 2.2 17:43:59 67° SW 17:44:21 79° W 17:47:45 10° N
Cosmos 1655 Rocket 4.0 17:38:56 10° NNW 17:45:06 59° WSW 17:51:23 10° S
Cosmos 1602 4.0 17:44:57 13° S 17:48:17 64° ESE 17:52:02 10° NNE
Meteor 1-31 Rocket 4.1 17:47:41 10° NNW 17:49:42 25° NW 17:49:42 25° NW
SeaSat 1 2.9 17:47:34 10° N 17:52:14 42° WNW 17:53:48 32° WSW
Cosmos 1818 3.6 17:49:20 26° WNW 17:52:17 57° SW 17:57:39 10° SSE
Cosmos 1461 3.1 17:51:09 30° SSW 17:52:55 61° SE 17:56:51 10° NE
CORIOLIS 4.1 17:47:55 10° N 17:53:15 61° WNW 17:58:40 10° SSW
Meteor PRIRODA 3.8 17:49:56 10° NNE 17:53:33 69° ESE 17:56:47 13° S
NOAA 6 4.1 17:50:50 10° NNE 17:56:01 79° ESE 18:01:15 10° SSW
Cosmos 44 3.1 17:54:38 37° WSW 17:56:03 55° WNW 18:00:14 10° NNE
Helios 1A 3.8 17:54:22 10° S 17:57:32 31° SW 17:57:32 31° SW
Meteor 1-20 Rocket 4.4 17:56:01 10° S 18:01:44 80° ESE 18:07:29 10° NNE
Cosmos 1500 3.0 18:01:15 19° SSW 18:03:47 65° W 18:07:27 10° N
Cosmos 1302 Rocket 4.5 18:01:55 25° SW 18:04:25 40° WNW 18:09:19 10° N
Meteor 1-25 Rocket 4.4 18:02:04 10° S 18:07:49 77° ESE 18:13:24 10° NNE
SL-16 R/B 2.1 18:02:38 10° NNW 18:08:21 79° WSW 18:14:07 10° SSE
USA 234 3.7 18:03:04 10° ESE 18:09:21 47° SSW 18:13:41 20° WSW
Cosmos 2322 Rocket 2.3 18:06:07 10° NNW 18:11:45 79° ENE 18:17:27 10° SSE
Cosmos 1697 Rocket 4.2 18:11:48 17° SW 18:12:05 17° SW 18:15:41 10° S
CZ-4B R/B 3.2 18:07:53 10° NNE 18:12:09 79° ESE 18:16:39 10° SSW
Cosmos 1844 3.8 18:07:42 11° SSW 18:13:23 88° ESE 18:19:12 10° NNE
Okean O Rocket 4.1 18:11:18 10° ENE 18:14:25 19° ESE 18:17:33 10° SSE
Cosmos 2360 Rocket 2.7 18:13:20 10° NNW 18:18:56 65° ENE 18:24:37 10° SSE
SMAP 3.9 18:15:26 10° NNW 18:19:35 30° W 18:22:45 15° SW
Cosmos 2221 3.3 18:18:40 10° N 18:22:56 55° E 18:27:14 10° SSE
Cosmos 1844 Rocket 2.7 18:20:29 11° SSW 18:25:51 67° WNW 18:31:23 10° NNE
Cosmos 2333 Rocket 3.0 18:25:23 10° N 18:30:56 57° ENE 18:36:32 10° SE
COSMO-SKYMED 1 2.5 18:28:04 10° SSE 18:32:31 80° WSW 18:36:54 10° NNW
Cosmos 1269 Rocket 4.0 18:28:04 10° NW 18:33:21 62° WSW 18:38:42 10° SSE
SL-4 R/B 3.2 18:29:18 10° NW 18:33:37 50° NE 18:38:10 10° ESE
Cosmos-2242 3.7 18:30:06 10° NW 18:34:04 32° WSW 18:38:06 10° S
Cosmos 1933 3.5 18:31:18 10° N 18:35:23 81° E 18:39:33 10° SSE
DMSP B5D2-2 4.4 18:30:28 10° S 18:35:28 43° WSW 18:40:24 10° NW
Cosmos 1812 Rocket 4.2 18:32:00 10° NW 18:35:57 33° WSW 18:39:58 10° S
Cosmos 2219 Rocket 3.3 18:37:42 10° N 18:43:04 48° ENE 18:48:30 10° SE
USA 81 4.1 18:38:24 10° S 18:43:47 81° W 18:49:05 10° N
ADEOS 4.0 18:39:15 10° N 18:44:13 43° W 18:49:17 10° SSW
Cosmos 1812 2.7 18:41:21 10° NNW 18:45:04 56° WSW 18:48:52 10° S
Landsat 4 3.9 18:43:50 10° N 18:47:26 50° W 18:51:04 10° SSW
Cosmos 1544 4.2 18:47:14 11° SW 18:49:49 22° W 18:52:30 10° NW
CZ-4B R/B 3.8 18:45:42 10° NNE 18:51:17 62° ESE 18:56:53 10° S
CZ-4 R/B 2.2 18:49:47 10° NNE 18:53:42 52° ESE 18:57:44 10° S
Cosmos 1666 3.8 18:52:00 10° SW 18:55:03 24° W 18:58:04 10° NW
SKYMED 3 4.4 18:50:59 10° SSE 18:55:15 80° WSW 18:59:26 10° NNW
NOSS 3-3 (A) 4.1 18:51:31 10° SW 18:58:12 77° SE 19:03:52 10° NE
NOSS 3-3 (C) 4.1 18:51:37 10° SW 18:58:17 77° SE 19:03:57 10° NE
Cosmos 1745 Rocket 4.0 18:52:26 10° NNW 18:58:37 75° W 19:04:51 10° S
PSLV R/B 3.9 18:56:24 10° NNE 19:00:17 80° ESE 19:04:09 10° S
SL-19 R/B 4.5 18:58:42 10° SSE 19:01:38 53° ENE 19:04:25 10° N
Cosmos 1709 Rocket 4.2 18:55:42 10° N 19:01:50 78° E 19:08:07 10° SSE
Cosmos 1980 Rocket 3.8 18:59:04 10° WSW 19:02:16 15° SW 19:05:29 10° S
Cosmos 1943 Rocket 4.2 18:59:02 10° S 19:03:11 20° SE 19:07:18 10° E
SL-08 R/B 3.9 18:59:16 10° S 19:03:29 34° WSW 19:07:39 10° NW
Cosmos 2278 Rocket 3.5 19:00:33 10° SSW 19:05:52 37° SE 19:11:08 10° ENE
NOSS 3-2 (A) 4.3 18:58:16 10° NW 19:07:06 84° NE 19:14:47 10° SE
BREEZE-M R/B 4.3 19:01:49 10° WSW 19:09:39 85° SSE 19:15:31 10° ENE
ISS -2.4 19:08:14 10° W 19:11:15 29° NW 19:14:14 10° NNE
Cosmos 2251 Rocket 3.7 19:09:32 10° NNW 19:14:56 87° ENE 19:20:24 10° SSE
YAOGAN 1 2.8 19:10:48 10° N 19:15:03 53° W 19:19:23 10° SSW
